TimeEDT,TemperatureF,Dew PointF,Humidity,Sea Level PressureIn,VisibilityMPH,Wind Direction,Wind SpeedMPH,Gust SpeedMPH,PrecipitationIn,Events,Conditions,WindDirDegrees,DateUTC
12:25 AM,51.8,50.0,94,29.86,9.0,SSW,5.8,-,0.03,Rain,Light Rain,200,2009-10-28 04:25:00
12:54 AM,51.1,50.0,96,29.83,3.0,SE,4.6,-,0.07,Rain,Heavy Rain,140,2009-10-28 04:54:00
1:07 AM,51.8,51.8,100,29.85,6.0,SSE,3.5,-,0.02,Rain,Light Rain,150,2009-10-28 05:07:00
1:13 AM,51.8,51.8,100,29.86,7.0,South,4.6,-,0.02,Rain,Light Rain,170,2009-10-28 05:13:00
1:42 AM,51.8,51.8,100,29.85,6.0,SE,4.6,-,0.03,,Overcast,130,2009-10-28 05:42:00
1:54 AM,51.1,51.1,100,29.82,9.0,Calm,Calm,-,0.03,,Overcast,0,2009-10-28 05:54:00
2:54 AM,53.1,52.0,96,29.81,10.0,Calm,Calm,-,N/A,,Overcast,0,2009-10-28 06:54:00
3:54 AM,52.0,52.0,100,29.82,10.0,NNW,3.5,-,N/A,,Overcast,330,2009-10-28 07:54:00
4:54 AM,53.1,52.0,96,29.83,10.0,NNW,8.1,-,N/A,,Overcast,340,2009-10-28 08:54:00
5:32 AM,53.6,51.8,94,29.87,4.0,NNW,10.4,-,N/A,,Overcast,340,2009-10-28 09:32:00
5:36 AM,53.6,51.8,94,29.87,1.8,NNW,10.4,-,N/A,,Overcast,340,2009-10-28 09:36:00
5:39 AM,51.8,51.8,100,29.87,1.2,NNW,9.2,-,N/A,,Overcast,330,2009-10-28 09:39:00
5:54 AM,53.1,53.1,100,29.85,1.2,North,10.4,-,N/A,,Overcast,350,2009-10-28 09:54:00
5:57 AM,53.6,53.6,100,29.88,2.0,North,9.2,-,N/A,,Overcast,350,2009-10-28 09:57:00
6:03 AM,53.6,53.6,100,29.88,9.0,NNW,13.8,-,N/A,,Overcast,340,2009-10-28 10:03:00
6:12 AM,53.6,53.6,100,29.89,10.0,North,8.1,-,N/A,,Overcast,350,2009-10-28 10:12:00
6:54 AM,54.0,54.0,100,29.88,10.0,NNW,11.5,-,N/A,,Overcast,340,2009-10-28 10:54:00
7:54 AM,54.0,53.1,97,29.91,3.0,NNW,11.5,-,N/A,,Overcast,340,2009-10-28 11:54:00
8:17 AM,53.6,51.8,94,29.94,8.0,NNW,10.4,-,N/A,,Scattered Clouds,330,2009-10-28 12:17:00
8:54 AM,55.0,52.0,89,29.93,10.0,NNW,11.5,-,N/A,,Clear,330,2009-10-28 12:54:00
9:54 AM,57.0,51.1,81,29.95,10.0,NNW,16.1,-,N/A,,Clear,330,2009-10-28 13:54:00
10:54 AM,60.1,50.0,69,29.96,10.0,NNW,16.1,-,N/A,,Clear,340,2009-10-28 14:54:00
11:54 AM,62.1,48.9,62,29.96,10.0,North,16.1,23.0,N/A,,Clear,350,2009-10-28 15:54:00
12:54 PM,64.0,50.0,60,29.97,10.0,North,8.1,-,N/A,,Clear,350,2009-10-28 16:54:00
1:54 PM,66.0,50.0,56,29.94,10.0,North,8.1,-,N/A,,Clear,350,2009-10-28 17:54:00
2:54 PM,69.1,50.0,51,29.93,10.0,NNW,8.1,-,N/A,,Clear,340,2009-10-28 18:54:00
3:54 PM,69.1,50.0,51,29.95,10.0,NNW,6.9,-,N/A,,Clear,330,2009-10-28 19:54:00
4:54 PM,70.0,50.0,49,29.96,10.0,NNW,8.1,-,N/A,,Clear,330,2009-10-28 20:54:00
5:54 PM,68.0,48.9,50,29.98,10.0,NNW,10.4,-,N/A,,Clear,340,2009-10-28 21:54:00
6:54 PM,61.0,48.0,62,30.01,10.0,NNW,8.1,-,N/A,,Clear,330,2009-10-28 22:54:00
7:54 PM,57.9,48.0,70,30.02,10.0,NNW,10.4,-,N/A,,Clear,330,2009-10-28 23:54:00
8:54 PM,57.9,48.9,72,30.06,10.0,Calm,Calm,-,N/A,,Clear,0,2009-10-29 00:54:00
9:54 PM,54.0,48.9,83,30.08,10.0,WNW,6.9,-,N/A,,Clear,300,2009-10-29 01:54:00
10:54 PM,54.0,48.9,83,30.09,10.0,North,3.5,-,N/A,,Clear,350,2009-10-29 02:54:00
11:54 PM,54.0,50.0,86,30.09,10.0,NNW,5.8,-,N/A,,Clear,340,2009-10-29 03:54:00